Tracking 19575 objects as of 19-Feb-2019
HD Live streaming from Space Station
objects crossing your sky now

CANX-6

Track CANX-6 now!
10-day predictions
CANX-6 is classified as:


NORAD ID: 32784
Int'l Code: 2008-021B
Perigee: 605.9 km
Apogee: 624.4 km
Inclination: 97.6 °
Period: 96.9 minutes
Semi major axis: 6986 km
RCS: 0.1943 m2 (medium)
Launch date: April 28, 2008
Source: Canada (CA)
Launch site: SRIHARIKOTA (SRI)

CanX 6 is a 14-pound [6-kg] Canadian spacecraft designed to track ships using maritime navigation signals transmitted from sea vessels.
aabbcc
Your satellite tracking list
Your tracking list is empty




NASA's NSSDC Master Catalog

Two Line Element Set (TLE):
1 32784U 08021B   19050.54357792  .00000130  00000-0  20404-4 0  9990
2 32784  97.5666  51.5484 0013181 315.9727  44.0439 14.86778182585600
Source of the keplerian elements: AFSPC